Location: Unspecified
(0.0000°N, 0.0000°E)
Time: 06:35:31
(UTC+00:00)

S-56A Canister/Altair - Pass Details

Date: 19 November 2019
Orbit: 633 x 2499 km, 38.9° (Epoch: 10 December)

Event Time Altitude Azimuth Distance (km) Brightness Sun altitude
Rises 00:19:24 0° 334° (NNW) 2,901 - -68.9°
Reaches altitude 10° 00:21:58 10° 349° (N) 2,024 - -68.7°
Maximum altitude 00:25:36 24° 44° (NE) 1,434 - -68.3°
Drops below altitude 10° 00:29:51 10° 97° (E) 2,392 - -67.8°
Sets 00:33:11 0° 111° (ESE) 3,581 - -67.4°
